Regional Weather Roundup
Issued by NWS Jackson, KY

Home | Current Version | Previous Version | Text Only | Print | Product List | Glossary Off
Versions: 1 2 3 4 5 6 7 8 9 10 11 12 13 14 15 16 17 18 19 20 21 22 23 24 25 26 27 28 29 30 31 32 33 34 35 36 37 38 39 40 41 42 43 44 45 46 47 48 49 50

000
ASUS43 KJKL 291910
RWRJKL

EAST KENTUCKY HOURLY WEATHER ROUNDUP
NATIONAL WEATHER SERVICE JACKSON KY
300 PM EDT FRI APR 29 2016

NOTE: "FAIR" INDICATES FEW OR NO CLOUDS BELOW 12,000 FEET WITH
NO SIGNIFICANT WEATHER AND/OR OBSTRUCTIONS TO VISIBILITY.

* THESE REPORTS ARE NOT UNDER NWS QUALITY CONTROL AND MAY NOT
  REPORT WEATHER SUCH AS PRECIPITATION AND FOG.

KYZ079-080-083-085-087-088-110-112-115-119-120-292000
...EASTERN KENTUCKY...

CITY           SKY/WX    TMP DP  RH WIND       PRES   REMARKS
JACKSON        CLOUDY    76  50  40 VRB7      30.01F
LONDON         MOSUNNY   77  45  32 W6        30.02F
SOMERSET*      MOSUNNY   73  50  43 CALM      30.03F
MONTICELLO*    PTSUNNY   75  49  39 N14       30.03F
WILLIAMSBURG*  PTCLDY    77  41  27 W5        30.01F
MIDDLESBORO*   CLOUDY    79  45  29 W7        30.01F
HARLAN APT*      N/A     79  41  25 SW7       30.02F
HAZARD APT*    PTCLDY    77  48  36 MISG      30.00F
BLACK MTN*       N/A     70  48  46 VRB3        N/A
PIKE CO APT*     N/A     75  50  40 SW7       29.99F
BIG SANDY APT* CLEAR     76  49  38 W9        29.99F
MOREHEAD APT*  PTCLDY    70  50  49 W9G17     30.04F
$$

KYZ035-036-041-042-044-050-067-078-099-292000
...CENTRAL KENTUCKY...

CITY           SKY/WX    TMP DP  RH WIND       PRES   REMARKS
MT STERLING*   PTSUNNY   70  54  56 NW7       30.04F
FLEMING/MASON* CLOUDY   N/A N/A N/A W6        30.02F
DANVILLE*      MOSUNNY   72  54  53 NW5       30.04F
RICHMOND*      MOSUNNY   72  54  53 W3        30.03F
LEXINGTON      MOSUNNY   70  47  43 W7        30.03F
FRANKFORT      CLOUDY    69  46  43 W5        30.02F
LOUISVILLE     CLOUDY    71  47  42 E6        30.02F
LEBANON*         N/A     70  52  52 N3        30.03S
BOWLING GREEN  CLOUDY    73  55  53 E3        30.03R
$$

KYZ091>093-OHZ055-061-077-WVZ005-015-034-035-042-292000
...SOUTHERN OHIO/WEST VIRGINIA...

CITY           SKY/WX    TMP DP  RH WIND       PRES   REMARKS
COVINGTON      PTSUNNY   68  49  50 NW12      30.03S
COLUMBUS       CLOUDY    58  48  69 NW7       30.02F
DAYTON         CLOUDY    58  49  72 N12       30.05S
WILMINGTON     CLOUDY    62  50  64 NW10      30.02R
HUNTINGTON       N/A     75  50  41 SW13G18   29.97F
CHARLESTON       N/A     75  50  41 W8        29.96F
PINEVILLE*       N/A     77  39  25 MISG      30.04F
BECKLEY          N/A     73  44  35 NW15G22   30.01S
$$

VAZ002-007-008-TNZ017-027-036-066-071-292000
...SOUTHWEST VIRGINIA/EAST TENNESSEE...

CITY           SKY/WX    TMP DP  RH WIND       PRES   REMARKS
WISE*            N/A     73  36  25 W12       30.06F
BRISTOL        MOSUNNY   78  49  35 W9        30.01F
MORRISTOWN*    CLEAR     79  48  34 CALM      30.00F
KNOXVILLE      CLOUDY    81  45  28 E5        29.99F
OAK RIDGE      CLOUDY    81  45  28 CALM      30.00F
CROSSVILLE     CLOUDY    78  40  25 N7        30.03F
NASHVILLE      CLOUDY    79  50  36 NE6       30.00S
$$

...KEY TO REMARKS...
VSB - VISIBILITY IN MILES
WCI - WIND CHILL INDEX
HX  - HEAT INDEX

$$



USA.gov is the U.S. government's official web portal to all federal, state and local government web resources and services.